Regional Weather Roundup
Issued by NWS

Home | Current Version | Previous Version | Text Only | Print | Product List | Glossary On
Versions: 1 2 3 4 5 6 7 8 9 10 11 12 13 14 15 16 17 18 19 20 21 22 23 24 25 26 27 28 29 30 31 32 33 34 35 36 37 38 39 40 41 42 43 44 45 46 47 48 49 50
000
ASHW40 PHFO 292243
RWRHI

WEATHER ROUNDUP FOR HAWAII
NATIONAL WEATHER SERVICE HONOLULU HI
1200 PM HST WED JUL 29 2015

THIS IS AN AUTOMATED REPORT THAT HAS NOT BEEN QUALITY CONTROLLED.

NOTE..."FAIR" INDICATES FEW OR NO CLOUDS BELOW 12,000 FEET WITH NO
SIGNIFICANT WEATHER AND/OR OBSTRUCTIONS TO VISIBILITY.

* - THESE SITES REPORT LIMITED FIELDS

HIZ001>004-292300-
KAUAI-NIIHAU-

CITY           SKY/WX    TMP DP  RH WIND       PRES   REMARKS
LIHUE APT      PTSUNNY   86  73  66 E13       29.98F HX  93
PORT ALLEN*    NOT AVBL
POIPU*           N/A     84 N/A N/A NE8G15      N/A
PRINCEVILLE*     N/A     82 N/A N/A MISG        N/A
KOKOLE POINT*  NOT AVBL
MOLOAA DAIRY*  NOT AVBL
WAIMEA HTS*      N/A     90  68  48 E15G22      N/A  HX  93
PUU OPAE*        N/A     82  70  65 W8G15       N/A
PUU LUA*       NOT AVBL
MAKAHA RIDGE*    N/A     81  70  69 NW3         N/A
$$

HIZ005>011-292300-
OAHU-

CITY           SKY/WX    TMP DP  RH WIND       PRES   REMARKS
HONOLULU       MOSUNNY   89  68  49 E21G28    29.95F HX  93
KALAELOA       MOSUNNY   88  69  53 SE12G21   29.96F HX  92
KANEOHE MCB    MOSUNNY   86  72  62 E9        29.95F HX  92
WHEELER FIELD  MOSUNNY   90  63  40 E13G20    30.00S HX  90
BELLOWS*         N/A    N/A N/A N/A NE16        N/A
KAHUKU*          N/A    N/A N/A N/A E8G18       N/A
WHEELER*       NOT AVBL
WAIANAE HARBOR NOT AVBL
DILLINGHAM*      N/A     97  64  34 MISG        N/A  HX  99
KAHUKU TRN*      N/A     75  63  64 E13G31      N/A
KAWAILOA*        N/A     82  66  57 E13G24      N/A
KII*             N/A     84  75  74 E16G23      N/A  HX  92
MAKUA RANGE*     N/A     88  72  58 W3          N/A  HX  94
OAHU FOREST NW   N/A     72  72 100 CALM        N/A
SCHOFIELD BRK*   N/A     72  52  49 MISG        N/A
SCHOFIELD S*   NOT AVBL
WAIANAE VLY*     N/A     93  64  38 MISG        N/A  HX  95
KUAOKALA*        N/A     84  70  61 W9          N/A
HONOULIUULI*   NOT AVBL
MOKUOLOE IS*     N/A    N/A N/A N/A MISG        N/A
PALEHUA*         N/A     79  63  57 E8G22       N/A
WAIAWA PHB*    NOT AVBL
$$

HIZ012>013-292300-
MOLOKAI-

CITY           SKY/WX    TMP DP  RH WIND       PRES   REMARKS
MOLOKAI AIRPT  MOSUNNY   90  68  48 NE14G22   29.96F HX  94
KALAUPAPA      NOT AVBL
MAKAPULAPAI*     N/A     88  72  58 E20G31      N/A  HX  94
MOLOKAI 1*       N/A     81  59  47 NE5G17      N/A
PUU ALII*        N/A     72  62  70 CALM        N/A
$$

HIZ016-292300-
KAHOOLAWE-

CITY           SKY/WX    TMP DP  RH WIND       PRES   REMARKS
KAHOOLAWE*       N/A     81 N/A N/A E20G29      N/A
HAKIOAWA*        N/A     85  71  63 MISG      30.38  HX  90
HONOKANAIA*      N/A     90  69  50 NE18G30   29.96F HX  95
KANELOA*         N/A     81  70  69 E23G37    30.03S
KEALIALALO*      N/A     86  68  54 E17G35    29.95F
LUA MAKIKA*    NOT AVBL
$$

HIZ014>015-292300-
LANAI-

CITY           SKY/WX    TMP DP  RH WIND       PRES   REMARKS
LANAI CITY     FAIR      82  70  65 W9        30.01F
LANAI 1*         N/A     72  59  64 NE17G26     N/A
$$

HIZ017>028-292300-
MAUI-

CITY           SKY/WX    TMP DP  RH WIND       PRES   REMARKS
KAHULUI        MOSUNNY   92  68  45 E18G29    29.94F HX  96
KAPALUA-W MAUI MOSUNNY   90  66  45 E17       29.96F HX  92
HANA AIRPORT   SUNNY     84  73  70 E10       30.00F HX  91
HANA*            N/A     84 N/A N/A E8G15       N/A
HALEAKALA SUMM NOT AVBL
MAALAEA BAY*   NOT AVBL
HALEAKALA*     NOT AVBL
KAUPO GAP*       N/A     79  59  50 S5G13       N/A
KULA 1*          N/A     69  61  75 NW7         N/A
$$

HIZ023>026-292300-
BIG ISLAND OF HAWAII COAST AND LOWER SLOPES-

CITY           SKY/WX    TMP DP  RH WIND       PRES   REMARKS
KAILUA KONA    SUNNY     88  73  61 SW12      29.92F HX  95
HILO           PTSUNNY   84  71  65 E7        29.98F
HONOKAA*       NOT AVBL
KAWAIHAE MWT*    N/A     88 N/A N/A W8G14       N/A
KAWAIHAE*        N/A     82 N/A N/A W12         N/A
SOUTH POINT*     N/A     81 N/A N/A E18G30      N/A
UPOLU AIRPORT*   N/A    N/A N/A N/A NE21G31     N/A
KAMUELA*       CLEAR     81  66  61 NE30      30.04F
HAKALAU*         N/A     68  53  58 E6G12       N/A
KALOKO-HONOKO*   N/A     88  72  58 SW8       29.91F HX  94
PALI 2*          N/A     82  64  54 NE16G28     N/A
KEALAKOMO*       N/A     75  55  50 NE15G32     N/A
KAUPULEHU*       N/A     90  70  51 W15G24      N/A  HX  95
KAPAPALA*        N/A     76  70  82 SE6G18      N/A
LOWER KAHUKU*    N/A     73  70  88 E3G16       N/A
PUHE CS*         N/A     88  70  55 W5G12       N/A  HX  92
PUHO CS*         N/A     87  71  57 W3          N/A  HX  92
PTA KEAMUKU*     N/A     81  64  57 CALM        N/A
WAIKOLOA*        N/A     86  70  58 NW7G13      N/A  HX  90
$$

HIZ027>028-292300-
BIG ISLAND OF HAWAII INTERIOR AND SUMMMITS-

CITY           SKY/WX    TMP DP  RH WIND       PRES   REMARKS
BRADSHAW FIELD MOSUNNY   74  54  48 W6G17     30.31F
MK VISITOR CEN NOT AVBL
MAUNA KEA*     NOT AVBL
MAUNA LOA*       N/A    N/A N/A N/A MISG        N/A
MAUNA LOA 1*   NOT AVBL
PTA KIPUKA*      N/A     75  57  53 NW8G18      N/A
PTA RANGE 17*    N/A     55  37  50 NW12G21     N/A
PTA WEST*        N/A     79  64  61 NW18G24     N/A
NENE CABIN*      N/A     63  52  67 E9G17       N/A
AHUMOA*          N/A     73  62  68 N10G18      N/A
PTA PORTABLE*  NOT AVBL
PUU MALI*        N/A     70  45  40 NE24G31     N/A
$$

HIC003-292300-
NORTHWEST ISLANDS-

CITY           SKY/WX    TMP DP  RH WIND       PRES   REMARKS
MIDWAY ISLAND  SUNNY     82  66  57 NE14      30.04F
MIDWAY NOS*    NOT AVBL
FRENCH FRIGATE NOT AVBL
$$

PHZ110>124-180-292300-
BUOY REPORTS

STATION/POSITION TIME  TEMP    WIND        PRES    WAVE   SWELL
                       AIR SEA DIR/SP/G            HT/PER HT/DIR
                 (UTC) (F)     (DEG/KT/KT) (MB)    (FT/S) (FT/D)
BUOY 51001       NOT AVBL
BUOY 51101       2200   81 81  150/ 10/ 12 1014.4R   6/11   5/180
BUOY 51100       NOT AVBL
BUOY 51002       2200   81 82   90/ 19/ 21 1012.8F   7/ 8   3/120
BUOY 51003       2200   82 83  120/ 17/ 19 1013.3F   8/ 8   3
BUOY 51004       2141   81 81   60/ 12/ 16 1012.8F   7/ 7   5/ 90
BARBERS PT BUOY  NOT AVBL
WAIMEA BAY BUOY  2200      81                N/A     3/ 7   2/280
KAILUA BAY BUOY  2200      81                N/A     5/ 6   2/140
LANAI BUOY       NOT AVBL
BARBERS PT 2     2200      83                N/A     5/13   3/190
PAUWELA MAUI     2200      80                N/A     4/ 7   2/ 90
HILO             NOT AVBL
KANEOHE BAY BUOY 2200      80                N/A     5/ 6
HANALEI KAUAI    2200      81                N/A     4/ 7   2/ 80
KAHULUI HARBOR   2200   84                   N/A
HONOLULU HARBOR  2200   87                   N/A
KILO NALU        NOT AVBL
HILO HARBOR      2200   85                   N/A
MOKUOLOE         2200   86                   N/A
NAWILIWILI       2200   81                   N/A
WHOTS BUOY       NOT AVBL
BUOY 51028       NOT AVBL
$$

......................KEY........................................
  SKY/WX - SKY CONDITIONS/PRESENT WEATHER
  TMP    - TEMPERATURE IN FAHRENHEIT
  DWPT   - DEWPOINT IN FAHRENHEIT
  RH     - RELATIVE HUMIDITY IN PERCENT
  WIND   - DIRECTION AND SPEED /MPH FOR ISLANDS...KTS FOR BUOYS/
  PRES   - MEAN SEA LEVEL PRESSURE IN INCHES OF HG
  VSB    - VISIBILITY IN MILES
  HX     - HEAT INDEX
  WCI    - WIND CHILL INDEX
  VRB    - VARIABLE WIND DIRECTION
  N/A    - NOT AVAILABLE


USA.gov is the U.S. government's official web portal to all federal, state and local government web resources and services.